| time (UTC) | temp C | wind direction | speed KPH | gust KPH | rain 1hr cm | rain 24hr cm | rain mn cm | humidity % | barometer mb |
| 20260504081021 | 16 | 333 | 4.8 | 12.9 | 0.00 | 0.00 | 0.00 | 54 | 1021.5 |
| 20260504050513 | 11 | 254 | 0.0 | 1.6 | 0.00 | 0.00 | 0.00 | 75 | 1020.7 |
| 20260504050013 | 10 | 254 | 0.0 | 3.2 | 0.00 | 0.00 | 0.00 | 76 | 1020.7 |
| 20260504044020 | 10 | 263 | 1.6 | 3.2 | 0.00 | 0.00 | 0.00 | 79 | 1020.7 |
| 20260504042021 | 10 | 256 | 3.2 | 4.8 | 0.00 | 0.00 | 0.00 | 76 | 1020.4 |
| 20260504040513 | 10 | 244 | 0.0 | 1.6 | 0.00 | 0.00 | 0.00 | 75 | 1020.3 |
| 20260504035513 | 10 | 244 | 0.0 | 1.6 | 0.00 | 0.00 | 0.00 | 76 | 1020.1 |
| 20260504034021 | 10 | 245 | 0.0 | 1.6 | 0.00 | 0.00 | 0.00 | 75 | 1020.1 |
| 20260504033019 | 10 | 244 | 0.0 | 1.6 | 0.00 | 0.00 | 0.00 | 75 | 1020.1 |
| 20260504030513 | 10 | 307 | 3.2 | 4.8 | 0.00 | 0.00 | 0.00 | 75 | 1020.4 |
| 20260504025019 | 10 | 331 | 3.2 | 4.8 | 0.00 | 0.00 | 0.00 | 79 | 1020.4 |
| 20260504024020 | 10 | 280 | 4.8 | 11.3 | 0.00 | 0.00 | 0.00 | 79 | 1020.5 |
| 20260504023513 | 10 | 297 | 8.0 | 12.9 | 0.00 | 0.00 | 0.00 | 80 | 1020.5 |
| 20260504022514 | 10 | 276 | 4.8 | 9.7 | 0.00 | 0.00 | 0.00 | 81 | 1020.5 |
| 20260504022019 | 10 | 291 | 8.0 | 12.9 | 0.00 | 0.00 | 0.00 | 81 | 1020.5 |
| 20260504020514 | 10 | 251 | 8.0 | 12.9 | 0.00 | 0.00 | 0.00 | 81 | 1020.5 |
| 20260504015514 | 10 | 303 | 6.4 | 12.9 | 0.00 | 0.00 | 0.00 | 82 | 1020.5 |
| 20260504015019 | 10 | 287 | 8.0 | 12.9 | 0.00 | 0.00 | 0.00 | 82 | 1020.6 |
| 20260504014513 | 10 | 299 | 4.8 | 11.3 | 0.00 | 0.00 | 0.00 | 83 | 1020.5 |
| 20260504014019 | 9 | 278 | 6.4 | 11.3 | 0.00 | 0.00 | 0.00 | 83 | 1020.5 |
| 20260504013020 | 9 | 299 | 6.4 | 12.9 | 0.00 | 0.00 | 0.00 | 83 | 1020.6 |
| 20260504012513 | 10 | 278 | 6.4 | 11.3 | 0.00 | 0.00 | 0.00 | 83 | 1020.6 |
| 20260504012019 | 10 | 289 | 4.8 | 11.3 | 0.00 | 0.00 | 0.00 | 83 | 1020.5 |
| 20260504010513 | 10 | 269 | 6.4 | 11.3 | 0.00 | 0.00 | 0.00 | 84 | 1020.5 |
| 20260504005513 | 9 | 305 | 8.0 | 12.9 | 0.00 | 0.00 | 0.00 | 84 | 1020.5 |
| 20260504005020 | 9 | 252 | 8.0 | 12.9 | 0.00 | 0.00 | 0.00 | 84 | 1020.6 |
| 20260504004513 | 10 | 281 | 8.0 | 12.9 | 0.00 | 0.00 | 0.00 | 85 | 1020.6 |
| 20260504004019 | 9 | 297 | 8.0 | 12.9 | 0.00 | 0.00 | 0.00 | 85 | 1020.6 |
| 20260504003514 | 9 | 359 | 4.8 | 11.3 | 0.00 | 0.00 | 0.00 | 85 | 1020.7 |
| 20260504003019 | 9 | 308 | 4.8 | 11.3 | 0.00 | 0.00 | 0.00 | 86 | 1020.6 |
| 20260504000512 | 9 | 294 | 3.2 | 11.3 | 0.00 | 0.00 | 0.00 | 85 | 1020.8 |
| 20260504000013 | 10 | 272 | 4.8 | 12.9 | 0.00 | 0.00 | 0.00 | 84 | 1020.9 |
| 20260503235513 | 10 | 275 | 6.4 | 12.9 | 0.00 | 0.00 | 0.00 | 85 | 1020.9 |
| 20260503235021 | 10 | 279 | 8.0 | 11.3 | 0.00 | 0.00 | 0.00 | 85 | 1020.9 |
| 20260503234517 | 10 | 295 | 8.0 | 11.3 | 0.00 | 0.00 | 0.00 | 85 | 1020.8 |
| 20260503233512 | 10 | 359 | 3.2 | 4.8 | 0.00 | 0.00 | 0.00 | 85 | 1020.8 |
| 20260503230515 | 10 | 306 | 8.0 | 11.3 | 0.00 | 0.00 | 0.00 | 84 | 1021.1 |
| 20260503224019 | 10 | 328 | 3.2 | 4.8 | 0.00 | 0.00 | 0.00 | 84 | 1021.2 |
| 20260503222020 | 10 | 320 | 9.7 | 14.5 | 0.00 | 0.00 | 0.00 | 84 | 1021.3 |
| 20260503221514 | 10 | 307 | 4.8 | 11.3 | 0.00 | 0.00 | 0.00 | 84 | 1021.3 |
| 20260503220512 | 10 | 307 | 8.0 | 12.9 | 0.00 | 0.00 | 0.00 | 84 | 1021.3 |
| 20260503215019 | 11 | 277 | 8.0 | 12.9 | 0.00 | 0.00 | 0.00 | 83 | 1021.3 |
| 20260503213512 | 11 | 318 | 9.7 | 16.1 | 0.00 | 0.00 | 0.00 | 84 | 1021.3 |
| 20260503211514 | 11 | 297 | 9.7 | 16.1 | 0.00 | 0.00 | 0.00 | 83 | 1021.1 |
| 20260503210012 | 11 | 291 | 11.3 | 16.1 | 0.00 | 0.00 | 0.00 | 83 | 1021.1 |
| 20260503203019 | 11 | 321 | 6.4 | 12.9 | 0.00 | 0.00 | 0.00 | 81 | 1021.0 |
| 20260503202019 | 11 | 290 | 8.0 | 12.9 | 0.00 | 0.00 | 0.00 | 80 | 1021.0 |
| 20260503201512 | 12 | 310 | 4.8 | 12.9 | 0.00 | 0.00 | 0.00 | 80 | 1020.9 |
| 20260503200514 | 12 | 275 | 8.0 | 14.5 | 0.00 | 0.00 | 0.00 | 80 | 1020.9 |
| 20260503200012 | 12 | 259 | 8.0 | 14.5 | 0.00 | 0.00 | 0.00 | 79 | 1020.9 |
| 20260503195019 | 12 | 300 | 8.0 | 12.9 | 0.00 | 0.00 | 0.00 | 78 | 1020.8 |
| 20260503193019 | 12 | 322 | 8.0 | 14.5 | 0.00 | 0.00 | 0.00 | 77 | 1020.8 |
| 20260503191512 | 12 | 285 | 8.0 | 16.1 | 0.00 | 0.00 | 0.00 | 76 | 1020.7 |
| 20260503191019 | 12 | 274 | 9.7 | 16.1 | 0.00 | 0.00 | 0.00 | 76 | 1020.7 |
| 20260503190012 | 12 | 281 | 9.7 | 19.3 | 0.00 | 0.00 | 0.00 | 76 | 1020.5 |
| 20260503185513 | 12 | 275 | 11.3 | 19.3 | 0.00 | 0.00 | 0.00 | 75 | 1020.4 |
| 20260503185021 | 13 | 299 | 8.0 | 14.5 | 0.00 | 0.00 | 0.00 | 75 | 1020.5 |
| 20260503184021 | 13 | 307 | 9.7 | 16.1 | 0.00 | 0.00 | 0.00 | 74 | 1020.5 |
| 20260503182513 | 13 | 310 | 11.3 | 19.3 | 0.00 | 0.00 | 0.00 | 74 | 1020.4 |
| 20260503181512 | 13 | 289 | 12.9 | 20.9 | 0.00 | 0.00 | 0.00 | 74 | 1020.2 |
| 20260503180012 | 13 | 302 | 11.3 | 27.4 | 0.00 | 0.00 | 0.00 | 75 | 1020.0 |
| 20260503175512 | 13 | 285 | 14.5 | 25.7 | 0.00 | 0.00 | 0.00 | 75 | 1020.0 |
| 20260503174513 | 14 | 302 | 16.1 | 24.1 | 0.00 | 0.00 | 0.00 | 76 | 1020.0 |
| 20260503174019 | 14 | 286 | 9.7 | 20.9 | 0.00 | 0.00 | 0.00 | 77 | 1019.8 |
| 20260503173019 | 14 | 273 | 11.3 | 20.9 | 0.00 | 0.00 | 0.00 | 76 | 1019.9 |
| 20260503171513 | 15 | 268 | 11.3 | 19.3 | 0.00 | 0.00 | 0.00 | 75 | 1019.7 |
| 20260503150512 | 17 | 348 | 11.3 | 24.1 | 0.00 | 0.00 | 0.00 | 67 | 1019.5 |
| 20260503130512 | 17 | 267 | 14.5 | 29.0 | 0.00 | 0.00 | 0.00 | 62 | 1020.6 |